PulseSat

PulseSat

GSAT0208 (GALILEO 11)

Last updated on April 21, 2019, 3:01 a.m. UTC

1 41175U 15079B   19110.26820292  .00000024  00000-0  00000+0 0  9998
2 41175  54.9368 173.1600 0004751 296.4244  63.6142  1.70473986 20785
UTC
Height (km)
Latitude
Longitude
Inclination
Orbital Period

Next 30 passes for location: Hong Kong

Rise time Rise Azimuth (degrees) Set time Set Azimuth (degrees) Duration Max altitude (degrees)

No matching passes for this satellites

PulseSat

PulseSat is the new satellites software and hardware trackering solution by Pulsely.
Satellite Two Line Element Set source: US Air Force Space Command

Download PulseSat for iOS
© 2017 Pulsely Limited